Time,TemperatureF,DewpointF,PressureIn,WindDirection,WindDirectionDegrees,WindSpeedMPH,WindSpeedGustMPH,Humidity,HourlyPrecipIn,Conditions,Clouds,dailyrainin,SoftwareType,DateUTC
2013-02-21 00:04:00,42.9,35.5,29.76,ENE,62,5.0,19.0,75,0.00,,,0.07,Wunderground v.1.15,2013-02-21 06:04:00,
2013-02-21 00:09:00,42.9,35.5,29.76,East,95,6.0,19.0,75,0.00,,,0.07,Wunderground v.1.15,2013-02-21 06:09:00,
2013-02-21 00:19:00,42.9,35.2,29.75,ESE,103,7.0,19.0,74,0.00,,,0.07,Wunderground v.1.15,2013-02-21 06:19:00,
2013-02-21 00:24:00,42.9,35.2,29.74,East,84,7.0,7.0,74,0.00,,,0.07,Wunderground v.1.15,2013-02-21 06:24:00,
2013-02-21 00:29:00,42.9,35.2,29.75,East,95,6.0,19.0,74,0.00,,,0.07,Wunderground v.1.15,2013-02-21 06:29:00,
2013-02-21 00:34:00,42.9,35.5,29.75,East,98,4.0,19.0,75,0.00,,,0.07,Wunderground v.1.15,2013-02-21 06:34:00,
2013-02-21 00:44:00,42.8,35.8,29.75,East,84,6.0,6.0,76,0.00,,,0.07,Wunderground v.1.15,2013-02-21 06:44:00,
2013-02-21 00:49:00,42.8,35.8,29.74,ESE,105,5.0,14.0,76,0.00,,,0.07,Wunderground v.1.15,2013-02-21 06:49:00,
2013-02-21 00:54:00,42.9,35.9,29.74,ESE,105,7.0,19.0,76,0.00,,,0.07,Wunderground v.1.15,2013-02-21 06:54:00,
2013-02-21 00:59:00,42.9,35.9,29.74,ESE,111,7.0,19.0,76,0.00,,,0.07,Wunderground v.1.15,2013-02-21 06:59:00,
2013-02-21 01:04:00,42.9,36.2,29.74,ENE,77,6.0,19.0,77,0.00,,,0.07,Wunderground v.1.15,2013-02-21 07:04:00,
2013-02-21 01:14:00,42.8,36.4,29.74,East,98,6.0,19.0,78,0.00,,,0.07,Wunderground v.1.15,2013-02-21 07:14:00,
2013-02-21 01:19:00,42.8,36.4,29.74,East,80,5.0,19.0,78,0.00,,,0.07,Wunderground v.1.15,2013-02-21 07:19:00,
2013-02-21 01:24:00,42.8,36.4,29.74,East,86,5.0,19.0,78,0.00,,,0.07,Wunderground v.1.15,2013-02-21 07:24:00,
2013-02-21 01:34:00,42.8,36.4,29.75,ESE,103,5.0,19.0,78,0.00,,,0.00,Wunderground v.1.15,2013-02-21 07:34:00,
2013-02-21 01:39:00,42.8,36.4,29.75,East,90,4.0,19.0,78,0.00,,,0.00,Wunderground v.1.15,2013-02-21 07:39:00,
2013-02-21 01:44:00,42.8,36.4,29.76,East,88,3.0,19.0,78,0.00,,,0.00,Wunderground v.1.15,2013-02-21 07:44:00,
2013-02-21 01:54:00,42.9,36.8,29.76,ENE,74,2.0,19.0,79,0.00,,,0.00,Wunderground v.1.15,2013-02-21 07:54:00,
2013-02-21 01:59:00,42.9,36.8,29.75,ENE,74,1.0,19.0,79,0.00,,,0.00,Wunderground v.1.15,2013-02-21 07:59:00,
2013-02-21 02:04:00,42.9,36.8,29.75,ENE,74,1.0,19.0,79,0.00,,,0.00,Wunderground v.1.15,2013-02-21 08:04:00,
2013-02-21 02:09:00,42.8,37.1,29.75,ENE,74,1.0,19.0,80,0.00,,,0.00,Wunderground v.1.15,2013-02-21 08:09:00,
2013-02-21 02:19:00,42.7,37.3,29.75,ENE,74,0.0,19.0,81,0.00,,,0.00,Wunderground v.1.15,2013-02-21 08:19:00,
2013-02-21 02:24:00,42.6,37.5,29.75,ENE,74,0.0,19.0,82,0.00,,,0.00,Wunderground v.1.15,2013-02-21 08:24:00,
2013-02-21 02:29:00,42.5,37.4,29.74,ENE,74,0.0,19.0,82,0.00,,,0.00,Wunderground v.1.15,2013-02-21 08:29:00,
2013-02-21 02:39:00,42.2,37.4,29.73,ENE,74,2.0,2.0,83,0.00,,,0.00,Wunderground v.1.15,2013-02-21 08:39:00,
2013-02-21 02:44:00,42.2,37.7,29.73,ENE,74,1.0,19.0,84,0.00,,,0.00,Wunderground v.1.15,2013-02-21 08:44:00,
2013-02-21 02:54:00,42.0,37.8,29.71,ENE,77,3.0,3.0,85,0.00,,,0.00,Wunderground v.1.15,2013-02-21 08:54:00,
2013-02-21 02:59:00,42.0,37.8,29.71,East,85,3.0,19.0,85,0.00,,,0.00,Wunderground v.1.15,2013-02-21 08:59:00,
2013-02-21 03:04:00,41.9,37.7,29.70,East,90,3.0,19.0,85,0.00,,,0.00,Wunderground v.1.15,2013-02-21 09:04:00,
2013-02-21 03:09:00,42.0,37.8,29.69,East,89,3.0,19.0,85,0.00,,,0.00,Wunderground v.1.15,2013-02-21 09:09:00,
2013-02-21 03:14:00,42.0,38.1,29.68,ENE,78,3.0,19.0,86,0.00,,,0.00,Wunderground v.1.15,2013-02-21 09:14:00,
2013-02-21 03:19:00,42.0,38.1,29.68,East,99,4.0,4.0,86,0.00,,,0.00,Wunderground v.1.15,2013-02-21 09:19:00,
2013-02-21 03:29:00,42.2,38.6,29.67,East,99,3.0,3.0,87,0.00,,,0.00,Wunderground v.1.15,2013-02-21 09:29:00,
2013-02-21 03:34:00,42.3,38.7,29.68,East,99,3.0,19.0,87,0.00,,,0.00,Wunderground v.1.15,2013-02-21 09:34:00,
2013-02-21 03:39:00,42.3,38.7,29.67,East,98,3.0,19.0,87,0.00,,,0.00,Wunderground v.1.15,2013-02-21 09:39:00,
2013-02-21 03:44:00,42.5,38.9,29.67,East,82,4.0,19.0,87,0.00,,,0.00,Wunderground v.1.15,2013-02-21 09:44:00,
2013-02-21 03:54:00,42.8,39.2,29.67,East,101,4.0,19.0,87,0.00,,,0.00,Wunderground v.1.15,2013-02-21 09:54:00,
2013-02-21 04:04:00,43.3,39.4,29.66,East,97,6.0,6.0,86,0.00,,,0.00,Wunderground v.1.15,2013-02-21 10:04:00,
2013-02-21 04:09:00,43.5,39.6,29.66,ESE,116,7.0,19.0,86,0.00,,,0.00,Wunderground v.1.15,2013-02-21 10:09:00,
2013-02-21 04:14:00,43.8,39.9,29.65,East,96,7.0,19.0,86,0.00,,,0.00,Wunderground v.1.15,2013-02-21 10:14:00,
2013-02-21 04:19:00,44.0,40.1,29.65,ESE,105,7.0,7.0,86,0.00,,,0.00,Wunderground v.1.15,2013-02-21 10:19:00,
2013-02-21 04:29:00,44.0,40.1,29.64,ESE,117,6.0,19.0,86,0.00,,,0.00,Wunderground v.1.15,2013-02-21 10:29:00,
2013-02-21 04:34:00,44.1,40.2,29.63,ESE,107,7.0,19.0,86,0.00,,,0.00,Wunderground v.1.15,2013-02-21 10:34:00,
2013-02-21 04:44:00,44.2,40.6,29.62,East,96,7.0,19.0,87,0.00,,,0.00,Wunderground v.1.15,2013-02-21 10:44:00,
2013-02-21 04:49:00,44.3,40.7,29.62,ESE,113,6.0,6.0,87,0.00,,,0.00,Wunderground v.1.15,2013-02-21 10:49:00,
2013-02-21 04:54:00,44.3,41.0,29.62,ESE,111,6.0,7.0,88,0.00,,,0.00,Wunderground v.1.15,2013-02-21 10:54:00,
2013-02-21 04:59:00,44.4,41.1,29.62,ESE,117,6.0,19.0,88,0.00,,,0.00,Wunderground v.1.15,2013-02-21 10:59:00,
2013-02-21 05:09:00,44.6,41.3,29.61,East,97,5.0,19.0,88,0.00,,,0.00,Wunderground v.1.15,2013-02-21 11:09:00,
2013-02-21 05:14:00,44.9,41.9,29.62,ESE,104,6.0,19.0,89,0.00,,,0.00,Wunderground v.1.15,2013-02-21 11:14:00,
2013-02-21 05:19:00,45.1,42.1,29.62,SE,124,6.0,19.0,89,0.00,,,0.00,Wunderground v.1.15,2013-02-21 11:19:00,
2013-02-21 05:24:00,45.4,42.3,29.62,ESE,104,5.0,19.0,89,0.00,,,0.00,Wunderground v.1.15,2013-02-21 11:24:00,
2013-02-21 05:29:00,45.5,42.4,29.63,ESE,111,4.0,4.0,89,0.00,,,0.00,Wunderground v.1.15,2013-02-21 11:29:00,
2013-02-21 05:34:00,45.8,42.7,29.62,ESE,117,4.0,6.0,89,0.00,,,0.00,Wunderground v.1.15,2013-02-21 11:34:00,
2013-02-21 05:44:00,46.1,43.0,29.63,East,100,5.0,19.0,89,0.00,,,0.00,Wunderground v.1.15,2013-02-21 11:44:00,
2013-02-21 05:49:00,46.2,43.1,29.62,East,101,4.0,19.0,89,0.00,,,0.00,Wunderground v.1.15,2013-02-21 11:49:00,
2013-02-21 05:54:00,46.4,43.3,29.62,ESE,117,6.0,19.0,89,0.00,,,0.00,Wunderground v.1.15,2013-02-21 11:54:00,
2013-02-21 05:59:00,46.5,43.4,29.62,ESE,117,6.0,19.0,89,0.00,,,0.00,Wunderground v.1.15,2013-02-21 11:59:00,
2013-02-21 06:14:00,46.7,43.6,29.60,ESE,104,6.0,6.0,89,0.00,,,0.00,Wunderground v.1.15,2013-02-21 12:14:00,
2013-02-21 06:19:00,46.8,43.7,29.60,East,98,6.0,7.0,89,0.00,,,0.00,Wunderground v.1.15,2013-02-21 12:19:00,
2013-02-21 06:24:00,46.9,43.8,29.58,ESE,105,7.0,19.0,89,0.00,,,0.00,Wunderground v.1.15,2013-02-21 12:24:00,
2013-02-21 06:34:00,47.1,44.0,29.58,ESE,103,8.0,8.0,89,0.00,,,0.00,Wunderground v.1.15,2013-02-21 12:34:00,
2013-02-21 06:39:00,47.2,44.4,29.58,SE,134,8.0,19.0,90,0.00,,,0.00,Wunderground v.1.15,2013-02-21 12:39:00,
2013-02-21 06:44:00,47.3,44.5,29.59,SE,134,8.0,8.0,90,0.00,,,0.00,Wunderground v.1.15,2013-02-21 12:44:00,
2013-02-21 06:49:00,47.4,44.6,29.58,ESE,119,6.0,19.0,90,0.00,,,0.00,Wunderground v.1.15,2013-02-21 12:49:00,
2013-02-21 06:59:00,47.9,45.1,29.58,SE,129,7.0,19.0,90,0.00,,,0.00,Wunderground v.1.15,2013-02-21 12:59:00,
2013-02-21 07:04:00,48.1,45.3,29.58,SE,126,6.0,19.0,90,0.00,,,0.00,Wunderground v.1.15,2013-02-21 13:04:00,
2013-02-21 07:14:00,48.5,45.7,29.59,ESE,123,3.0,19.0,90,0.00,,,0.00,Wunderground v.1.15,2013-02-21 13:14:00,
2013-02-21 07:19:00,48.8,46.3,29.59,ESE,114,4.0,4.0,91,0.00,,,0.00,Wunderground v.1.15,2013-02-21 13:19:00,
2013-02-21 07:24:00,49.0,46.5,29.59,ESE,115,4.0,19.0,91,0.00,,,0.00,Wunderground v.1.15,2013-02-21 13:24:00,
2013-02-21 07:29:00,49.1,46.6,29.62,WNW,298,2.0,19.0,91,0.00,,,0.00,Wunderground v.1.15,2013-02-21 13:29:00,
2013-02-21 07:34:00,48.8,46.0,29.67,West,279,9.0,20.0,90,0.00,,,0.01,Wunderground v.1.15,2013-02-21 13:34:00,
2013-02-21 07:44:00,47.8,45.0,29.69,NNW,331,11.0,19.0,90,0.00,,,0.01,Wunderground v.1.15,2013-02-21 13:44:00,
2013-02-21 07:49:00,47.3,44.5,29.70,NW,312,9.0,9.0,90,0.00,,,0.01,Wunderground v.1.15,2013-02-21 13:49:00,
2013-02-21 07:54:00,47.0,44.5,29.70,WNW,300,6.0,19.0,91,0.00,,,0.01,Wunderground v.1.15,2013-02-21 13:54:00,
2013-02-21 07:59:00,46.8,44.3,29.71,NW,313,5.0,19.0,91,0.00,,,0.02,Wunderground v.1.15,2013-02-21 13:59:00,
2013-02-21 08:04:00,46.6,44.1,29.70,NNW,327,5.0,19.0,91,0.09,,,0.03,Wunderground v.1.15,2013-02-21 14:04:00,
2013-02-21 08:14:00,46.5,44.0,29.70,NNW,327,2.0,19.0,91,0.17,,,0.05,Wunderground v.1.15,2013-02-21 14:14:00,
2013-02-21 08:19:00,46.3,44.1,29.70,NNW,348,3.0,19.0,92,0.10,,,0.06,Wunderground v.1.15,2013-02-21 14:19:00,
2013-02-21 08:24:00,46.1,43.6,29.71,NW,324,3.0,19.0,91,0.13,,,0.07,Wunderground v.1.15,2013-02-21 14:24:00,
2013-02-21 08:29:00,45.8,43.6,29.71,NNW,334,3.0,19.0,92,0.08,,,0.08,Wunderground v.1.15,2013-02-21 14:29:00,
2013-02-21 08:34:00,45.6,43.4,29.70,ENE,59,3.0,19.0,92,0.16,,,0.09,Wunderground v.1.15,2013-02-21 14:34:00,
2013-02-21 08:44:00,45.5,43.3,29.71,NE,54,1.0,19.0,92,0.15,,,0.11,Wunderground v.1.15,2013-02-21 14:44:00,
2013-02-21 08:49:00,45.5,43.3,29.71,NE,54,0.0,19.0,92,0.08,,,0.11,Wunderground v.1.15,2013-02-21 14:49:00,
2013-02-21 08:54:00,45.5,43.3,29.71,NE,54,0.0,19.0,92,0.07,,,0.12,Wunderground v.1.15,2013-02-21 14:54:00,
2013-02-21 08:59:00,45.4,43.2,29.72,NE,54,1.0,1.0,92,0.13,,,0.13,Wunderground v.1.15,2013-02-21 14:59:00,
2013-02-21 09:09:00,45.5,43.3,29.71,NE,54,1.0,1.0,92,0.06,,,0.14,Wunderground v.1.15,2013-02-21 15:09:00,
2013-02-21 09:19:00,45.7,43.5,29.71,NE,54,0.0,19.0,92,0.07,,,0.15,Wunderground v.1.15,2013-02-21 15:19:00,
2013-02-21 09:24:00,46.3,44.4,29.71,NE,54,0.0,19.0,93,0.06,,,0.16,Wunderground v.1.15,2013-02-21 15:24:00,
2013-02-21 09:29:00,47.2,45.3,29.71,NE,54,0.0,19.0,93,0.11,,,0.17,Wunderground v.1.15,2013-02-21 15:29:00,
2013-02-21 09:34:00,47.6,45.4,29.71,NE,53,1.0,19.0,92,0.07,,,0.17,Wunderground v.1.15,2013-02-21 15:34:00,
2013-02-21 09:44:00,48.9,46.4,29.72,NE,53,1.0,19.0,91,0.11,,,0.19,Wunderground v.1.15,2013-02-21 15:44:00,
2013-02-21 09:49:00,49.7,46.6,29.72,NE,53,0.0,19.0,89,0.08,,,0.19,Wunderground v.1.15,2013-02-21 15:49:00,
2013-02-21 09:54:00,50.1,46.7,29.72,NE,53,0.0,19.0,88,0.06,,,0.20,Wunderground v.1.15,2013-02-21 15:54:00,
2013-02-21 09:59:00,50.9,47.2,29.71,NE,53,0.0,19.0,87,0.08,,,0.20,Wunderground v.1.15,2013-02-21 15:59:00,
2013-02-21 10:09:00,51.5,46.8,29.71,NE,53,0.0,19.0,84,0.06,,,0.21,Wunderground v.1.15,2013-02-21 16:09:00,
2013-02-21 10:14:00,51.6,46.6,29.71,NE,53,0.0,19.0,83,0.04,,,0.21,Wunderground v.1.15,2013-02-21 16:14:00,
2013-02-21 10:19:00,51.8,46.5,29.72,NE,53,0.0,19.0,82,0.00,,,0.22,Wunderground v.1.15,2013-02-21 16:19:00,
2013-02-21 10:29:00,52.1,46.4,29.72,NE,53,0.0,19.0,81,0.00,,,0.22,Wunderground v.1.15,2013-02-21 16:29:00,
2013-02-21 10:39:00,52.1,46.8,29.72,NE,53,2.0,2.0,82,0.00,,,0.23,Wunderground v.1.15,2013-02-21 16:39:00,
2013-02-21 10:44:00,52.1,46.4,29.73,NE,49,2.0,7.0,81,0.00,,,0.23,Wunderground v.1.15,2013-02-21 16:44:00,
2013-02-21 10:49:00,51.5,45.9,29.73,NNW,327,3.0,19.0,81,0.00,,,0.23,Wunderground v.1.15,2013-02-21 16:49:00,
2013-02-21 10:54:00,51.2,45.9,29.73,WNW,288,4.0,19.0,82,0.00,,,0.23,Wunderground v.1.15,2013-02-21 16:54:00,
2013-02-21 10:59:00,50.9,45.9,29.73,WNW,284,4.0,19.0,83,0.00,,,0.23,Wunderground v.1.15,2013-02-21 16:59:00,
2013-02-21 11:09:00,51.1,46.4,29.73,West,259,4.0,19.0,84,0.00,,,0.24,Wunderground v.1.15,2013-02-21 17:09:00,
2013-02-21 11:14:00,51.4,46.7,29.73,West,264,3.0,19.0,84,0.00,,,0.24,Wunderground v.1.15,2013-02-21 17:14:00,
2013-02-21 11:19:00,51.9,47.2,29.73,West,265,3.0,3.0,84,0.00,,,0.24,Wunderground v.1.15,2013-02-21 17:19:00,
2013-02-21 11:24:00,52.6,47.6,29.73,West,265,2.0,19.0,83,0.00,,,0.24,Wunderground v.1.15,2013-02-21 17:24:00,
2013-02-21 11:34:00,55.0,48.6,29.72,West,265,2.0,19.0,79,0.00,,,0.25,Wunderground v.1.15,2013-02-21 17:34:00,
2013-02-21 11:39:00,56.3,48.8,29.72,WSW,254,3.0,19.0,76,0.00,,,0.25,Wunderground v.1.15,2013-02-21 17:39:00,
2013-02-21 11:44:00,57.3,49.1,29.72,WSW,257,4.0,19.0,74,0.00,,,0.25,Wunderground v.1.15,2013-02-21 17:44:00,
2013-02-21 11:54:00,56.4,46.7,29.71,SW,233,6.0,19.0,70,0.00,,,0.25,Wunderground v.1.15,2013-02-21 17:54:00,
2013-02-21 11:59:00,56.5,46.1,29.71,West,271,6.0,19.0,68,0.00,,,0.25,Wunderground v.1.15,2013-02-21 17:59:00,
2013-02-21 12:04:00,57.0,45.3,29.72,West,263,6.0,6.0,65,0.00,,,0.25,Wunderground v.1.15,2013-02-21 18:04:00,
2013-02-21 12:14:00,57.3,44.0,29.71,West,280,9.0,19.0,61,0.00,,,0.26,Wunderground v.1.15,2013-02-21 18:14:00,
2013-02-21 12:19:00,57.5,43.7,29.71,West,275,10.0,10.0,60,0.00,,,0.26,Wunderground v.1.15,2013-02-21 18:19:00,
2013-02-21 12:24:00,57.5,43.3,29.71,West,281,10.0,19.0,59,0.00,,,0.26,Wunderground v.1.15,2013-02-21 18:24:00,
2013-02-21 12:34:00,58.8,43.1,29.70,WSW,254,8.0,19.0,56,0.00,,,0.26,Wunderground v.1.15,2013-02-21 18:34:00,
2013-02-21 12:39:00,60.1,43.4,29.71,West,263,6.0,19.0,54,0.00,,,0.26,Wunderground v.1.15,2013-02-21 18:39:00,
2013-02-21 12:44:00,60.3,41.6,29.70,WSW,253,6.0,19.0,50,0.00,,,0.26,Wunderground v.1.15,2013-02-21 18:44:00,
2013-02-21 12:49:00,60.0,41.3,29.70,SW,236,9.0,9.0,50,0.00,,,0.26,Wunderground v.1.15,2013-02-21 18:49:00,
2013-02-21 12:54:00,60.9,41.6,29.69,WSW,254,8.0,19.0,49,0.00,,,0.26,Wunderground v.1.15,2013-02-21 18:54:00,
2013-02-21 13:04:00,61.5,39.4,29.68,WSW,254,7.0,19.0,44,0.00,,,0.26,Wunderground v.1.15,2013-02-21 19:04:00,
2013-02-21 13:14:00,61.8,38.4,29.69,WSW,243,8.0,19.0,42,0.00,,,0.26,Wunderground v.1.15,2013-02-21 19:14:00,
2013-02-21 13:19:00,61.8,38.4,29.68,WSW,249,9.0,9.0,42,0.00,,,0.27,Wunderground v.1.15,2013-02-21 19:19:00,
2013-02-21 13:24:00,61.8,39.6,29.68,West,281,9.0,13.0,44,0.00,,,0.27,Wunderground v.1.15,2013-02-21 19:24:00,
2013-02-21 13:34:00,62.4,40.2,29.67,WNW,292,7.0,19.0,44,0.00,,,0.27,Wunderground v.1.15,2013-02-21 19:34:00,
2013-02-21 13:39:00,62.7,39.3,29.67,West,266,7.0,19.0,42,0.00,,,0.27,Wunderground v.1.15,2013-02-21 19:39:00,
2013-02-21 13:44:00,63.0,40.1,29.67,West,277,8.0,19.0,43,0.00,,,0.27,Wunderground v.1.15,2013-02-21 19:44:00,
2013-02-21 13:54:00,64.1,40.5,29.66,West,261,6.0,19.0,42,0.00,,,0.27,Wunderground v.1.15,2013-02-21 19:54:00,
2013-02-21 13:59:00,64.5,40.3,29.66,West,261,6.0,6.0,41,0.00,,,0.27,Wunderground v.1.15,2013-02-21 19:59:00,
2013-02-21 14:04:00,65.2,41.5,29.66,West,269,5.0,9.0,42,0.00,,,0.27,Wunderground v.1.15,2013-02-21 20:04:00,
2013-02-21 14:09:00,64.9,40.0,29.66,West,273,7.0,19.0,40,0.00,,,0.27,Wunderground v.1.15,2013-02-21 20:09:00,
2013-02-21 14:19:00,65.0,38.8,29.66,WSW,257,8.0,19.0,38,0.00,,,0.27,Wunderground v.1.15,2013-02-21 20:19:00,
2013-02-21 14:24:00,66.0,38.3,29.65,West,269,7.0,19.0,36,0.00,,,0.27,Wunderground v.1.15,2013-02-21 20:24:00,
2013-02-21 14:29:00,66.8,36.8,29.65,WSW,247,7.0,19.0,33,0.00,,,0.27,Wunderground v.1.15,2013-02-21 20:29:00,
2013-02-21 14:34:00,66.6,33.3,29.65,WSW,248,9.0,19.0,29,0.00,,,0.27,Wunderground v.1.15,2013-02-21 20:34:00,
2013-02-21 14:39:00,67.0,31.0,29.66,WSW,257,11.0,19.0,26,0.00,,,0.27,Wunderground v.1.15,2013-02-21 20:39:00,
2013-02-21 14:44:00,66.6,29.6,29.65,West,280,12.0,19.0,25,0.00,,,0.28,Wunderground v.1.15,2013-02-21 20:44:00,
2013-02-21 14:54:00,66.8,28.8,29.66,WSW,242,12.0,19.0,24,0.00,,,0.28,Wunderground v.1.15,2013-02-21 20:54:00,
2013-02-21 14:59:00,66.7,28.7,29.66,West,261,12.0,12.0,24,0.00,,,0.28,Wunderground v.1.15,2013-02-21 20:59:00,
2013-02-21 15:04:00,67.5,29.4,29.66,WSW,249,10.0,19.0,24,0.00,,,0.28,Wunderground v.1.15,2013-02-21 21:04:00,
2013-02-21 15:14:00,67.2,27.0,29.66,WSW,253,13.0,19.0,22,0.00,,,0.28,Wunderground v.1.15,2013-02-21 21:14:00,
2013-02-21 15:19:00,67.2,25.9,29.66,WSW,254,13.0,19.0,21,0.00,,,0.28,Wunderground v.1.15,2013-02-21 21:19:00,
2013-02-21 15:24:00,67.4,27.2,29.66,West,275,11.0,19.0,22,0.00,,,0.28,Wunderground v.1.15,2013-02-21 21:24:00,
2013-02-21 15:34:00,67.7,26.3,29.66,WSW,257,12.0,19.0,21,0.00,,,0.28,Wunderground v.1.15,2013-02-21 21:34:00,
2013-02-21 15:39:00,67.9,26.5,29.66,West,277,11.0,11.0,21,0.00,,,0.28,Wunderground v.1.15,2013-02-21 21:39:00,
2013-02-21 15:49:00,68.2,25.6,29.67,WSW,251,10.0,10.0,20,0.00,,,0.28,Wunderground v.1.15,2013-02-21 21:49:00,
2013-02-21 15:54:00,68.2,25.6,29.67,WSW,246,10.0,19.0,20,0.00,,,0.28,Wunderground v.1.15,2013-02-21 21:54:00,
2013-02-21 15:59:00,68.5,25.8,29.67,WSW,257,9.0,19.0,20,0.00,,,0.28,Wunderground v.1.15,2013-02-21 21:59:00,
2013-02-21 16:04:00,68.4,26.9,29.67,WSW,253,9.0,19.0,21,0.00,,,0.28,Wunderground v.1.15,2013-02-21 22:04:00,
2013-02-21 16:09:00,68.1,26.7,29.67,WSW,258,10.0,10.0,21,0.00,,,0.29,Wunderground v.1.15,2013-02-21 22:09:00,
2013-02-21 16:19:00,68.4,28.0,29.68,West,275,9.0,19.0,22,0.00,,,0.29,Wunderground v.1.15,2013-02-21 22:19:00,
2013-02-21 16:24:00,68.4,25.7,29.68,West,265,9.0,19.0,20,0.00,,,0.29,Wunderground v.1.15,2013-02-21 22:24:00,
2013-02-21 16:29:00,68.4,26.9,29.68,SW,231,10.0,10.0,21,0.00,,,0.29,Wunderground v.1.15,2013-02-21 22:29:00,
2013-02-21 16:34:00,68.5,27.0,29.68,WNW,283,9.0,19.0,21,0.00,,,0.29,Wunderground v.1.15,2013-02-21 22:34:00,
2013-02-21 16:39:00,68.3,26.8,29.69,WNW,300,10.0,19.0,21,0.00,,,0.29,Wunderground v.1.15,2013-02-21 22:39:00,
2013-02-21 16:44:00,68.0,26.6,29.69,West,275,11.0,19.0,21,0.00,,,0.29,Wunderground v.1.15,2013-02-21 22:44:00,
2013-02-21 16:54:00,67.8,28.6,29.69,West,271,11.0,19.0,23,0.00,,,0.29,Wunderground v.1.15,2013-02-21 22:54:00,
2013-02-21 16:59:00,67.7,28.5,29.69,West,267,10.0,10.0,23,0.00,,,0.29,Wunderground v.1.15,2013-02-21 22:59:00,
2013-02-21 17:09:00,67.3,29.2,29.70,WSW,252,10.0,19.0,24,0.00,,,0.29,Wunderground v.1.15,2013-02-21 23:09:00,
2013-02-21 17:14:00,67.0,30.0,29.70,West,279,11.0,19.0,25,0.00,,,0.29,Wunderground v.1.15,2013-02-21 23:14:00,
2013-02-21 17:19:00,66.8,29.8,29.70,WNW,282,11.0,19.0,25,0.00,,,0.29,Wunderground v.1.15,2013-02-21 23:19:00,
2013-02-21 17:24:00,66.7,30.7,29.70,WNW,295,9.0,19.0,26,0.00,,,0.29,Wunderground v.1.15,2013-02-21 23:24:00,
2013-02-21 17:34:00,66.3,32.2,29.71,West,279,9.0,9.0,28,0.00,,,0.29,Wunderground v.1.15,2013-02-21 23:34:00,
2013-02-21 17:39:00,66.0,31.9,29.71,West,277,10.0,19.0,28,0.00,,,0.29,Wunderground v.1.15,2013-02-21 23:39:00,
2013-02-21 17:44:00,65.8,32.6,29.72,West,277,10.0,19.0,29,0.00,,,0.29,Wunderground v.1.15,2013-02-21 23:44:00,
2013-02-21 17:49:00,65.5,32.4,29.72,West,269,10.0,10.0,29,0.00,,,0.29,Wunderground v.1.15,2013-02-21 23:49:00,
2013-02-21 17:54:00,65.3,32.2,29.73,West,280,10.0,19.0,29,0.00,,,0.29,Wunderground v.1.15,2013-02-21 23:54:00,
2013-02-21 18:04:00,64.8,33.4,29.73,WNW,288,7.0,11.0,31,0.00,,,0.29,Wunderground v.1.15,2013-02-22 00:04:00,
2013-02-21 18:09:00,64.4,33.1,29.74,West,279,7.0,7.0,31,0.00,,,0.29,Wunderground v.1.15,2013-02-22 00:09:00,
2013-02-21 18:14:00,64.1,32.8,29.74,West,271,7.0,8.0,31,0.00,,,0.29,Wunderground v.1.15,2013-02-22 00:14:00,
2013-02-21 18:24:00,63.5,33.1,29.75,West,267,6.0,9.0,32,0.00,,,0.29,Wunderground v.1.15,2013-02-22 00:24:00,
2013-02-21 18:29:00,63.2,32.8,29.75,West,264,6.0,19.0,32,0.00,,,0.29,Wunderground v.1.15,2013-02-22 00:29:00,
2013-02-21 18:39:00,62.8,33.2,29.75,WNW,292,5.0,19.0,33,0.00,,,0.30,Wunderground v.1.15,2013-02-22 00:39:00,
2013-02-21 18:44:00,62.6,33.1,29.76,WNW,290,5.0,19.0,33,0.00,,,0.30,Wunderground v.1.15,2013-02-22 00:44:00,
2013-02-21 18:49:00,62.3,33.6,29.76,West,271,5.0,5.0,34,0.00,,,0.30,Wunderground v.1.15,2013-02-22 00:49:00,
2013-02-21 18:54:00,62.2,33.5,29.76,West,272,5.0,19.0,34,0.00,,,0.30,Wunderground v.1.15,2013-02-22 00:54:00,
2013-02-21 18:59:00,61.9,33.9,29.76,West,271,4.0,4.0,35,0.00,,,0.30,Wunderground v.1.15,2013-02-22 00:59:00,
2013-02-21 19:09:00,61.3,34.1,29.77,West,271,3.0,19.0,36,0.00,,,0.30,Wunderground v.1.15,2013-02-22 01:09:00,
2013-02-21 19:14:00,61.1,33.9,29.77,West,271,3.0,19.0,36,0.00,,,0.31,Wunderground v.1.15,2013-02-22 01:14:00,
2013-02-21 19:24:00,60.6,34.2,29.77,West,269,4.0,19.0,37,0.00,,,0.31,Wunderground v.1.15,2013-02-22 01:24:00,
2013-02-21 19:29:00,60.5,34.1,29.77,West,263,5.0,5.0,37,0.00,,,0.31,Wunderground v.1.15,2013-02-22 01:29:00,
2013-02-21 19:39:00,60.8,33.7,29.77,West,277,5.0,19.0,36,0.00,,,0.31,Wunderground v.1.15,2013-02-22 01:39:00,
2013-02-21 19:44:00,60.9,33.7,29.78,West,263,5.0,19.0,36,0.00,,,0.31,Wunderground v.1.15,2013-02-22 01:44:00,
2013-02-21 19:49:00,61.1,33.9,29.78,West,259,5.0,19.0,36,0.00,,,0.31,Wunderground v.1.15,2013-02-22 01:49:00,
2013-02-21 19:59:00,61.1,33.2,29.78,West,267,6.0,19.0,35,0.00,,,0.31,Wunderground v.1.15,2013-02-22 01:59:00,
2013-02-21 20:04:00,61.2,34.0,29.78,West,273,6.0,8.0,36,0.00,,,0.31,Wunderground v.1.15,2013-02-22 02:04:00,
2013-02-21 20:14:00,61.1,33.9,29.79,West,264,6.0,8.0,36,0.00,,,0.31,Wunderground v.1.15,2013-02-22 02:14:00,
2013-02-21 20:24:00,60.9,33.7,29.80,WNW,290,6.0,19.0,36,0.00,,,0.31,Wunderground v.1.15,2013-02-22 02:24:00,
2013-02-21 20:29:00,60.2,34.5,29.82,NW,310,5.0,19.0,38,0.00,,,0.31,Wunderground v.1.15,2013-02-22 02:29:00,
2013-02-21 20:39:00,58.6,38.4,29.83,NW,320,9.0,19.0,47,0.00,,,0.32,Wunderground v.1.15,2013-02-22 02:39:00,
2013-02-21 20:44:00,57.7,39.7,29.84,WNW,298,9.0,19.0,51,0.00,,,0.32,Wunderground v.1.15,2013-02-22 02:44:00,
2013-02-21 20:49:00,56.8,39.8,29.85,NNW,328,8.0,8.0,53,0.00,,,0.32,Wunderground v.1.15,2013-02-22 02:49:00,
2013-02-21 20:54:00,55.9,40.0,29.85,WNW,292,9.0,10.0,55,0.00,,,0.32,Wunderground v.1.15,2013-02-22 02:54:00,
2013-02-21 20:59:00,55.0,40.5,29.86,NW,321,9.0,9.0,58,0.00,,,0.32,Wunderground v.1.15,2013-02-22 02:59:00,
2013-02-21 21:09:00,53.5,40.8,29.87,NNW,346,7.0,19.0,62,0.00,,,0.32,Wunderground v.1.15,2013-02-22 03:09:00,
2013-02-21 21:14:00,52.8,40.5,29.88,North,5,7.0,19.0,63,0.00,,,0.32,Wunderground v.1.15,2013-02-22 03:14:00,
2013-02-21 21:19:00,52.1,39.9,29.89,NNW,331,7.0,19.0,63,0.00,,,0.32,Wunderground v.1.15,2013-02-22 03:19:00,
2013-02-21 21:24:00,51.5,39.7,29.89,NW,320,8.0,19.0,64,0.00,,,0.32,Wunderground v.1.15,2013-02-22 03:24:00,
2013-02-21 21:29:00,51.1,39.7,29.89,NW,313,9.0,9.0,65,0.00,,,0.32,Wunderground v.1.15,2013-02-22 03:29:00,
2013-02-21 21:39:00,50.3,39.4,29.88,WNW,302,9.0,19.0,66,0.00,,,0.32,Wunderground v.1.15,2013-02-22 03:39:00,
2013-02-21 21:44:00,50.1,39.6,29.88,NNW,344,9.0,19.0,67,0.00,,,0.32,Wunderground v.1.15,2013-02-22 03:44:00,
2013-02-21 21:49:00,49.8,39.7,29.89,NW,323,8.0,8.0,68,0.00,,,0.32,Wunderground v.1.15,2013-02-22 03:49:00,
2013-02-21 21:54:00,49.5,39.4,29.89,NNW,338,7.0,19.0,68,0.00,,,0.32,Wunderground v.1.15,2013-02-22 03:54:00,
2013-02-21 21:59:00,49.2,39.5,29.89,NNW,331,6.0,6.0,69,0.00,,,0.32,Wunderground v.1.15,2013-02-22 03:59:00,
2013-02-21 22:09:00,48.7,39.0,29.90,NNW,327,7.0,7.0,69,0.00,,,0.32,Wunderground v.1.15,2013-02-22 04:09:00,
2013-02-21 22:14:00,48.5,38.8,29.90,NW,308,7.0,19.0,69,0.00,,,0.32,Wunderground v.1.15,2013-02-22 04:14:00,
2013-02-21 22:19:00,48.3,38.6,29.90,NNW,342,8.0,19.0,69,0.00,,,0.32,Wunderground v.1.15,2013-02-22 04:19:00,
2013-02-21 22:29:00,48.0,38.3,29.91,NW,317,7.0,7.0,69,0.00,,,0.32,Wunderground v.1.15,2013-02-22 04:29:00,
2013-02-21 22:34:00,47.9,38.2,29.91,NW,311,7.0,19.0,69,0.00,,,0.32,Wunderground v.1.15,2013-02-22 04:34:00,
2013-02-21 22:44:00,47.5,38.2,29.92,NW,313,6.0,19.0,70,0.00,,,0.32,Wunderground v.1.15,2013-02-22 04:44:00,
2013-02-21 22:49:00,47.4,38.1,29.91,NNW,337,6.0,6.0,70,0.00,,,0.32,Wunderground v.1.15,2013-02-22 04:49:00,
2013-02-21 22:54:00,47.1,38.2,29.92,NNW,331,6.0,19.0,71,0.00,,,0.32,Wunderground v.1.15,2013-02-22 04:54:00,
2013-02-21 23:04:00,46.9,37.6,29.92,NW,314,5.0,19.0,70,0.00,,,0.32,Wunderground v.1.15,2013-02-22 05:04:00,
2013-02-21 23:09:00,46.7,37.4,29.92,NNW,347,6.0,19.0,70,0.00,,,0.32,Wunderground v.1.15,2013-02-22 05:09:00,
2013-02-21 23:14:00,46.5,37.6,29.92,North,355,5.0,19.0,71,0.00,,,0.32,Wunderground v.1.15,2013-02-22 05:14:00,
2013-02-21 23:24:00,46.1,37.2,29.92,NNW,339,5.0,19.0,71,0.00,,,0.32,Wunderground v.1.15,2013-02-22 05:24:00,
2013-02-21 23:29:00,45.9,37.4,29.92,NNW,341,4.0,4.0,72,0.00,,,0.32,Wunderground v.1.15,2013-02-22 05:29:00,
2013-02-21 23:34:00,45.8,37.3,29.92,NNW,335,3.0,19.0,72,0.00,,,0.32,Wunderground v.1.15,2013-02-22 05:34:00,
2013-02-21 23:44:00,45.4,37.2,29.92,North,351,3.0,19.0,73,0.00,,,0.32,Wunderground v.1.15,2013-02-22 05:44:00,
2013-02-21 23:49:00,45.2,37.4,29.92,North,350,3.0,3.0,74,0.00,,,0.32,Wunderground v.1.15,2013-02-22 05:49:00,
2013-02-21 23:54:00,45.1,37.3,29.92,NNW,344,3.0,5.0,74,0.00,,,0.32,Wunderground v.1.15,2013-02-22 05:54:00,
2013-02-21 23:59:00,44.9,37.1,29.92,NNW,334,3.0,13.0,74,0.00,,,0.32,Wunderground v.1.15,2013-02-22 05:59:00,